Orbital Elements at Epoch 2459000.5 (2020-May-31.0) TDB
Reference: JPL 19 (heliocentric ecliptic J2000)
Element | Value | Uncertainty (1-sigma) | Units |
e | .09293244391057744 | 4.6859e-08 | |
a | 2.629241845006518 | 1.4084e-08 | au |
q | 2.384899974718107 | 1.3058e-07 | au |
i | 2.947355817081715 | 3.1045e-06 | deg |
node | 239.6813612957524 | 9.5483e-05 | deg |
peri | 140.8395388990311 | 9.8108e-05 | deg |
M | 296.7567795104271 | 2.2514e-05 | deg |
tp | 2459274.061959912279 (2021-Feb-28.56195991) | 9.7776e-05 | TDB |
period | 1557.199408981043 4.26 | 1.2513e-05 3.426e-08 | d yr |
n | .2311842644710268 | 1.8576e-09 | deg/d |
Q | 2.87358371529493 | 1.5393e-08 | au |
|
| | Orbit Determination Parameters
Additional Information
|